Location: Helds Island Access
(38.5526°N, 91.5997°W)
Time: 16:15:56
(UTC-06:00)

Daily predictions for brighter satellites

Satellite Brightness Start Highest point End
(mag) Time Altitude Azimuth Time Altitude Azimuth Time Altitude Azimuth
DELTA 2 R/B (1) 3.6 17:07:57 10° W 17:13:31 81° N 17:19:08 10° E
BREEZE-M DEB (TANK) 2.6 17:11:52 10° NW 17:14:26 51° NE 17:21:14 10° ESE
Meteor 1-13 Rocket 4.4 17:11:09 10° S 17:16:32 53° E 17:22:05 10° NNE
ALOS 3.8 17:14:34 10° E 17:17:06 15° ENE 17:19:39 10° NNE
Cosmos 2369 4.1 17:11:50 10° S 17:17:13 46° ESE 17:22:38 10° NE
Cosmos 2278 4.1 17:12:28 10° S 17:17:48 44° ESE 17:23:11 10° NE
ATLAS 2AS CENTAUR R/B 3.4 17:10:56 10° SW 17:18:38 72° NW 17:26:47 10° NNE
ATLAS 3B R/B 2.7 17:14:04 10° NNW 17:20:37 55° NE 17:26:57 10° SE
MSX 4.5 17:15:11 10° S 17:20:52 63° WSW 17:26:37 10° NNW
IRAS Rocket 4.2 17:17:19 10° SSE 17:22:45 72° ENE 17:28:13 10° N
Cosmos 1536 Rocket 4.0 17:18:54 10° SSE 17:22:59 41° E 17:27:03 10° NNE
Hubble Space Telescope 3.3 17:21:36 10° SW 17:24:26 18° S 17:27:17 10° SE
CZ-4 R/B 1.7 17:21:48 10° SE 17:25:24 39° ENE 17:29:07 10° N
CSL-04 Rocket 3.7 17:20:07 10° SSE 17:25:30 76° ENE 17:31:01 10° N
Meteor 1-28 Rocket 3.4 17:22:30 10° NNE 17:26:12 52° E 17:29:53 10° S
Cosmos 158 Rocket 4.1 17:22:22 10° N 17:27:16 47° ENE 17:32:01 10° SE
USA 215 3.2 17:25:44 10° SE 17:32:14 74° NE 17:38:46 10° NW
Cosmos 1697 Rocket 3.3 17:30:32 10° S 17:35:39 37° ESE 17:40:48 10° NE
Cosmos 1743 2.9 17:32:21 10° N 17:36:14 77° W 17:40:07 10° S
NOSS 8 (A) 4.3 17:34:31 10° SW 17:37:53 84° WNW 17:41:04 10° NNE
SKYMED 2 4.3 17:34:31 10° NNE 17:38:26 32° E 17:42:19 10° SSE
Meteor 1-19 Rocket 4.4 17:34:11 10° S 17:39:50 85° W 17:45:40 10° N
NOSS 3-4 (A) 3.9 17:34:30 10° S 17:40:17 42° ESE 17:45:48 12° NE
NOSS 3-4 (C) 3.9 17:34:37 10° S 17:40:23 42° ESE 17:45:51 12° NE
Okean 2 4.4 17:42:10 10° SE 17:45:30 25° E 17:48:05 14° NE
Abrixas rocket 4.3 17:43:38 10° NW 17:45:42 16° N 17:47:23 12° NNE
Cosmos 2082 3.6 17:43:41 10° NNW 17:49:17 64° ENE 17:54:51 10° SSE
PSLV R/B 3.3 17:46:19 10° W 17:49:26 57° N 17:51:14 22° ENE
Gbstr 26 Del rocket 4.5 17:44:28 10° SW 17:52:37 84° SE 17:58:45 16° NE
ISS -3.2 17:50:29 10° WNW 17:53:44 57° SW 17:56:56 10° SE
Landsat 4 3.8 17:50:30 10° NNE 17:54:17 58° ESE 17:58:01 10° S
Cosmos 2266 Rocket 3.9 17:49:47 10° N 17:55:52 72° E 18:02:03 10° SSE
ERS-2 2.8 17:52:49 10° SE 17:56:07 33° ENE 17:59:26 10° N
BREEZE-M DEB (TANK) 4.4 17:56:21 10° NW 17:59:12 33° NE 18:02:42 18° E
SPOT 3 Rocket 3.9 17:54:37 10° SE 17:59:25 40° ENE 18:04:13 10° N
CENTAUR R/B 3.9 17:53:59 10° NNW 18:00:28 27° NE 18:04:34 19° E
Cosmos 1455 Rocket 4.0 17:56:40 10° NNW 18:00:57 51° W 18:05:12 10° S
Cosmos 2227 Rocket 2.3 17:55:22 10° NNW 18:01:02 81° WSW 18:06:40 10° SSE
Ariane Rocket 4.0 18:03:03 10° S 18:07:55 48° W 18:12:49 10° NNW
YAOGAN 1 2.5 18:04:33 10° SSE 18:08:53 87° W 18:13:14 10° NNW
MINOTAUR IV R/B 4.4 18:04:23 10° NNW 18:08:53 76° ENE 18:13:20 10° SSE
CZ-4 R/B 4.4 18:06:39 10° SSE 18:10:47 88° WSW 18:14:56 10° NNW
USA 116 4.1 18:07:57 10° N 18:11:00 47° WNW 18:13:58 10° SSW
MOS 1 4.2 18:06:52 10° SSE 18:12:30 69° ENE 18:18:09 10° N
Meteor 2-9 Rocket 4.5 18:08:14 10° NNW 18:13:41 68° W 18:18:58 10° S
Cosmos 1980 Rocket 2.4 18:11:11 10° S 18:16:35 48° ESE 18:19:35 25° NE
Meteor 1-23 Rocket 4.3 18:12:08 10° S 18:17:54 86° W 18:23:38 10° N
Cosmos 494 Rocket 4.4 18:13:53 10° N 18:18:46 37° ENE 18:23:05 13° SE
STPSAT 2 (USA 217) 4.5 18:15:56 10° NNW 18:20:28 70° ENE 18:25:00 10° SSE
Cosmos 1269 Rocket 4.0 18:15:48 10° NNW 18:21:07 89° W 18:26:25 10° SSE
Cosmos 1125 Rocket 4.4 18:16:19 10° SW 18:21:26 49° WNW 18:26:35 10° N
COSMO-SKYMED 1 2.8 18:22:13 10° N 18:26:33 70° WNW 18:30:51 10° SSW
Cosmos 2297 Rocket 2.9 18:22:02 10° NNW 18:27:35 57° WSW 18:33:05 10° S
MONITOR-E 4.3 18:25:49 10° S 18:28:51 71° W 18:31:54 10° NNW
Atlas Centaur 2 4.0 18:25:46 10° WSW 18:29:38 20° SSW 18:32:56 10° SSE
SJ 16-02 2.9 18:26:32 10° SW 18:30:31 34° WNW 18:34:34 10° N
Cosmos 1244 Rocket 4.4 18:24:36 10° N 18:30:41 60° E 18:36:46 10° SSE
Gblst 52 Del rocket 4.5 18:25:22 10° NW 18:30:55 51° NNE 18:33:02 36° E
Lacrosse 5 rocket 3.8 18:33:22 10° SSE 18:33:23 10° SSE 18:33:23 10° SSE
Cosmos 2344 4.3 18:34:03 10° SSE 18:40:25 29° ESE 18:40:35 29° ESE
RESURS DK-1 2.7 18:41:01 10° S 18:44:18 48° SSE 18:44:18 48° SSE
Cosmos 1553 Rocket 4.0 18:42:58 10° S 18:49:15 62° E 18:52:38 28° NNE
Cosmos 1417 Rocket 4.3 18:46:18 10° S 18:52:25 76° E 18:56:48 21° NNE
SL-08 R/B 4.4 18:46:20 10° N 18:52:31 58° E 18:58:34 10° SSE
Okean 1-7 Rocket 3.8 18:48:12 10° SSW 18:52:33 69° W 18:54:16 36° N
NOAA 12 4.4 18:48:04 10° S 18:53:18 66° WSW 18:58:33 10° NNW
SL-24 R/B - RUBIN 2 4.4 18:47:17 10° SW 18:53:34 74° WNW 18:55:53 38° NNE
ALOS 2.9 18:49:29 10° S 18:54:03 55° W 18:58:38 10° NNW
Cosmos 1025 Rocket 3.9 18:50:02 10° SSW 18:54:11 47° W 18:56:56 20° NNW
NOSS 3-2 (A) 4.4 18:49:52 10° NW 18:57:28 65° WSW 19:05:38 10° SSE
SL-16 R/B 3.6 18:52:55 10° SSE 18:55:25 23° SSE 18:55:25 23° SSE
DELTA 2 R/B (1) 3.4 18:54:30 10° W 19:00:06 85° SSW 19:00:47 69° ESE
FENGYUN 3A 4.4 18:57:41 10° S 19:02:55 53° W 19:08:10 10° NNW
Cosmos 2322 Rocket 3.6 18:57:56 10° S 19:00:14 23° SSE 19:00:14 23° SSE
NOSS 3-2 (C) 4.2 18:57:32 10° NW 19:05:13 75° WSW 19:13:29 10° SSE
Cosmos 2360 4.3 18:59:33 10° SSW 19:05:16 74° WNW 19:07:03 45° N
Cosmos 1697 Rocket 4.3 19:14:45 10° WSW 19:19:38 30° WNW 19:22:52 18° N
DNEPR-1 R/B 4.2 19:15:37 10° NNW 19:20:49 83° W 19:20:49 83° W
CENTAUR R/B 3.0 19:44:02 10° NW 19:51:52 84° WNW 19:51:52 84° WNW
Cosmos 1980 Rocket 4.1 19:56:16 10° WSW 20:00:49 24° NW 20:01:25 24° NW
